Content
SEND FEEDBACK

Daily
Averages
Monthly
Summary
United States of America

TAMUNING, GUAM


Home > North America > United States > Guam
Elevation: 250 feet     Latitude: 13 29N     Longitude: 144 47E

WEATHER
 
SELECT A DAY
Number of Records: 356,763;   Date Range: 1/1/95 - 12/21/14
 
SHARE

PRINT THIS DATA

[ ← Previous Day ]
WEATHER ALMANAC - MARCH 3, 2013
[ Next Day → ]
[ °C ]   °F
Weather ElementAverageHighLow
Temperature80.1 °F84.2 °F (9:50 am)78.1 °F (6:55 am)
Dewpoint74.6 °F75.6 °F (1:55 pm)73.4 °F (6:42 am)
Humidity83.4 %90 % (12:55 am)73 % (12:55 pm)
Barometer29.80 in29.84 in (9:18 am)29.75 in (2:55 pm)
Wind Speed11.1 mph13.8 mph (11:08 am)
Weather ElementAverage
Visibility10 mi
Wind DirectionENE (79.7 °)

Weather ElementTotal
Precipitation---
Cooling Degree Days16.2 (Base 65)
Growing Degree Days31.2 (Base 50)
Averaged from 145 records on March 3, 2013
WEATHER CONDITIONS BREAKOUT
WIND DIRECTION BREAKOUT
WEATHER BY HOUR - MARCH 3, 2013
[ °C ]   °F
Local TimeTemperatureDewpointHumidityBarometerVisibilityWind DirectionWind SpeedGust SpeedPrecipitationEventsConditions
12:13 AM78.8 °F75.2 °F89 %29.83 in10.0 miENE (70°)9.2 mphScattered Clouds
12:24 AM78.8 °F75.2 °F89 %29.83 in10.0 miENE (70°)8.1 mphMostly Cloudy
12:41 AM78.8 °F75.2 °F89 %29.82 in10.0 miENE (70°)10.4 mphMostly Cloudy
12:44 AM78.8 °F75.2 °F89 %29.82 in10.0 miEast (80°)8.1 mphMostly Cloudy
12:55 AM78.4 °F75.4 °F90 %29.82 in10.0 miENE (70°)10.4 mphMostly Cloudy
1:06 AM78.8 °F75.2 °F89 %29.82 in10.0 miEast (80°)9.2 mphOvercast
1:07 AM78.8 °F75.2 °F89 %29.82 in10.0 miEast (80°)9.2 mphOvercast
1:33 AM78.8 °F75.2 °F89 %29.81 in10.0 miENE (70°)11.5 mphOvercast
1:36 AM78.8 °F75.2 °F89 %29.81 in10.0 miENE (70°)11.5 mphOvercast
1:37 AM78.8 °F75.2 °F89 %29.81 in10.0 miENE (70°)10.4 mphOvercast
1:41 AM78.8 °F75.2 °F89 %29.80 in10.0 miENE (60°)10.4 mphOvercast
1:43 AM78.8 °F75.2 °F89 %29.80 in10.0 miENE (60°)9.2 mphOvercast
1:44 AM78.8 °F75.2 °F89 %29.80 in10.0 miENE (70°)8.1 mphOvercast
1:52 AM78.8 °F75.2 °F89 %29.80 in10.0 miENE (60°)10.4 mphOvercast
1:53 AM78.8 °F75.2 °F89 %29.80 in10.0 miENE (60°)10.4 mphOvercast
1:55 AM78.4 °F75.4 °F90 %29.80 in10.0 miENE (60°)10.4 mphOvercast
2:04 AM78.8 °F75.2 °F89 %29.80 in10.0 miENE (60°)11.5 mphOvercast
2:10 AM78.8 °F75.2 °F89 %29.80 in10.0 miENE (60°)11.5 mphOvercast
2:15 AM78.8 °F75.2 °F89 %29.80 in10.0 miENE (70°)10.4 mphOvercast
2:20 AM78.8 °F75.2 °F89 %29.80 in10.0 miENE (60°)9.2 mphOvercast
2:31 AM78.8 °F75.2 °F89 %29.79 in10.0 miENE (70°)11.5 mphMostly Cloudy
2:44 AM78.8 °F75.2 °F89 %29.79 in10.0 miENE (70°)9.2 mphMostly Cloudy
2:50 AM78.8 °F75.2 °F89 %29.79 in10.0 miENE (70°)9.2 mphScattered Clouds
2:55 AM78.3 °F74.8 °F89 %29.79 in10.0 miENE (70°)10.4 mphScattered Clouds
3:05 AM78.8 °F75.2 °F89 %29.78 in10.0 miENE (70°)8.1 mphMostly Cloudy
3:06 AM78.8 °F75.2 °F89 %29.78 in10.0 miENE (60°)9.2 mphMostly Cloudy
3:38 AM78.8 °F75.2 °F89 %29.78 in10.0 miENE (70°)9.2 mphMostly Cloudy
6:42 AM78.8 °F73.4 °F83 %29.80 in10.0 miEast (80°)8.1 mphMostly Cloudy
6:55 AM78.1 °F74.3 °F88 %29.80 in10.0 miEast (80°)9.2 mphMostly Cloudy
7:01 AM78.8 °F75.2 °F89 %29.81 in10.0 miEast (90°)9.2 mphMostly Cloudy
7:04 AM78.8 °F75.2 °F89 %29.81 in10.0 miEast (90°)9.2 mphOvercast
7:14 AM78.8 °F75.2 °F89 %29.81 in10.0 miEast (90°)11.5 mphMostly Cloudy
7:32 AM78.8 °F75.2 °F89 %29.81 in10.0 miEast (80°)11.5 mphMostly Cloudy
7:36 AM78.8 °F75.2 °F89 %29.81 in10.0 miEast (80°)10.4 mphMostly Cloudy
7:46 AM78.8 °F75.2 °F89 %29.82 in10.0 miEast (90°)11.5 mphMostly Cloudy
7:53 AM78.8 °F75.2 °F89 %29.82 in10.0 miEast (90°)10.4 mphOvercast
7:55 AM79.3 °F74.8 °F86 %29.82 in10.0 miEast (80°)10.4 mphOvercast
7:56 AM78.8 °F75.2 °F89 %29.82 in10.0 miEast (80°)10.4 mphOvercast
7:57 AM78.8 °F75.2 °F89 %29.82 in10.0 miEast (80°)10.4 mphOvercast
8:23 AM80.6 °F75.2 °F84 %29.83 in10.0 miEast (90°)11.5 mphMostly Cloudy
8:31 AM80.6 °F75.2 °F84 %29.83 in10.0 miEast (80°)9.2 mphMostly Cloudy
8:45 AM80.6 °F75.2 °F84 %29.83 in10.0 miENE (70°)12.7 mphRainLight Rain
8:46 AM80.6 °F75.2 °F84 %29.83 in10.0 miENE (70°)12.7 mphRainLight Rain
8:54 AM80.6 °F75.2 °F84 %29.83 in10.0 miENE (70°)11.5 mphMostly Cloudy
8:55 AM81.0 °F75.0 °F82 %29.83 in10.0 miENE (70°)11.5 mph0.00 inMostly Cloudy
9:12 AM82.4 °F73.4 °F74 %29.83 in10.0 miEast (100°)10.4 mphScattered Clouds
9:18 AM82.4 °F75.2 °F79 %29.84 in10.0 miEast (80°)8.1 mphMostly Cloudy
9:20 AM82.4 °F75.2 °F79 %29.84 in10.0 miEast (80°)10.4 mphScattered Clouds
9:22 AM82.4 °F75.2 °F79 %29.84 in10.0 miEast (90°)10.4 mphMostly Cloudy
9:29 AM82.4 °F75.2 °F79 %29.84 in10.0 miEast (90°)12.7 mphMostly Cloudy
9:32 AM82.4 °F75.2 °F79 %29.84 in10.0 miEast (80°)12.7 mphScattered Clouds
9:39 AM82.4 °F75.2 °F79 %29.84 in10.0 miEast (80°)9.2 mphMostly Cloudy
9:50 AM84.2 °F75.2 °F74 %29.84 in10.0 miEast (90°)10.4 mphMostly Cloudy
9:55 AM82.9 °F74.7 °F76 %29.84 in10.0 miEast (80°)9.2 mphMostly Cloudy
10:26 AM82.4 °F75.2 °F79 %29.83 in10.0 miENE (70°)12.7 mphMostly Cloudy
10:31 AM82.4 °F75.2 °F79 %29.83 in10.0 miEast (80°)12.7 mphScattered Clouds
10:33 AM82.4 °F75.2 °F79 %29.83 in10.0 miEast (80°)11.5 mphMostly Cloudy
10:53 AM82.4 °F75.2 °F79 %29.83 in10.0 miENE (60°)12.7 mphMostly Cloudy
10:55 AM83.1 °F75.2 °F77 %29.83 in10.0 miEast (80°)12.7 mphMostly Cloudy
11:08 AM82.4 °F75.2 °F79 %29.82 in10.0 miEast (80°)13.8 mphMostly Cloudy
11:16 AM82.4 °F75.2 °F79 %29.82 in10.0 miEast (80°)12.7 mphMostly Cloudy
11:53 AM82.4 °F73.4 °F74 %29.81 in10.0 miENE (60°)11.5 mphMostly Cloudy
11:54 AM82.4 °F73.4 °F74 %29.81 in10.0 miENE (60°)13.8 mphMostly Cloudy
11:55 AM82.9 °F74.1 °F75 %29.81 in10.0 miENE (60°)12.7 mphMostly Cloudy
11:58 AM82.4 °F75.2 °F79 %29.81 in10.0 miENE (70°)11.5 mphMostly Cloudy
12:02 PM82.4 °F75.2 °F79 %29.81 in10.0 miEast (80°)11.5 mphMostly Cloudy
12:03 PM82.4 °F75.2 °F79 %29.81 in10.0 miEast (80°)12.7 mphMostly Cloudy
12:28 PM82.4 °F75.2 °F79 %29.80 in10.0 miENE (70°)13.8 mphMostly Cloudy
12:29 PM82.4 °F75.2 °F79 %29.80 in10.0 miENE (70°)12.7 mphMostly Cloudy
12:55 PM83.7 °F74.3 °F73 %29.79 in10.0 miENE (70°)12.7 mphMostly Cloudy
1:05 PM82.4 °F75.2 °F79 %29.78 in10.0 miENE (70°)12.7 mphScattered Clouds
1:06 PM82.4 °F75.2 °F79 %29.78 in10.0 miENE (70°)11.5 mphMostly Cloudy
1:20 PM82.4 °F75.2 °F79 %29.77 in10.0 miEast (80°)10.4 mphScattered Clouds
1:35 PM84.2 °F75.2 °F74 %29.77 in10.0 miEast (80°)11.5 mphMostly Cloudy
1:36 PM84.2 °F75.2 °F74 %29.77 in10.0 miEast (80°)12.7 mphMostly Cloudy
1:38 PM84.2 °F75.2 °F74 %29.76 in10.0 miEast (80°)12.7 mphMostly Cloudy
1:39 PM82.4 °F75.2 °F79 %29.76 in10.0 miEast (80°)12.7 mphMostly Cloudy
1:55 PM84.2 °F75.6 °F75 %29.76 in10.0 miEast (90°)12.7 mphMostly Cloudy
2:55 PM82.0 °F74.8 °F79 %29.75 in10.0 miEast (90°)11.5 mphOvercast
3:30 PM82.4 °F75.2 °F79 %29.75 in10.0 miEast (80°)11.5 mphScattered Clouds
3:38 PM82.4 °F75.2 °F79 %29.75 in10.0 miEast (90°)13.8 mphMostly Cloudy
3:55 PM82.8 °F74.5 °F76 %29.75 in10.0 miEast (90°)11.5 mphMostly Cloudy
4:23 PM82.4 °F73.4 °F74 %29.76 in10.0 miEast (100°)12.7 mphMostly Cloudy
4:25 PM82.4 °F73.4 °F74 %29.76 in10.0 miEast (90°)13.8 mphScattered Clouds
4:37 PM82.4 °F75.2 °F79 %29.76 in10.0 miEast (80°)10.4 mphMostly Cloudy
4:42 PM82.4 °F73.4 °F74 %29.76 in10.0 miEast (90°)12.7 mphScattered Clouds
4:55 PM80.6 °F73.8 °F80 %29.76 in10.0 miEast (90°)9.2 mphScattered Clouds
4:59 PM80.6 °F73.4 °F79 %29.76 in10.0 miEast (100°)9.2 mphMostly Cloudy
5:03 PM80.6 °F73.4 °F79 %29.76 in10.0 miEast (100°)11.5 mphScattered Clouds
5:16 PM80.6 °F75.2 °F84 %29.77 in10.0 miEast (90°)10.4 mphMostly Cloudy
5:19 PM80.6 °F73.4 °F79 %29.77 in10.0 miEast (100°)10.4 mphMostly Cloudy
5:21 PM80.6 °F73.4 °F79 %29.77 in10.0 miEast (90°)9.2 mphMostly Cloudy
5:23 PM80.6 °F73.4 °F79 %29.77 in10.0 miEast (90°)10.4 mphScattered Clouds
5:33 PM80.6 °F75.2 °F84 %29.77 in10.0 miEast (90°)10.4 mphMostly Cloudy
5:40 PM80.6 °F75.2 °F84 %29.77 in10.0 miEast (90°)10.4 mphMostly Cloudy
5:46 PM80.6 °F73.4 °F79 %29.77 in10.0 miEast (90°)10.4 mphMostly Cloudy
5:55 PM79.9 °F73.9 °F82 %29.78 in10.0 miEast (80°)10.4 mphMostly Cloudy
5:56 PM80.6 °F73.4 °F79 %29.78 in10.0 miEast (90°)10.4 mphScattered Clouds
5:57 PM80.6 °F73.4 °F79 %29.78 in10.0 miEast (100°)10.4 mphMostly Cloudy
6:00 PM80.6 °F73.4 °F79 %29.78 in10.0 miEast (80°)11.5 mphMostly Cloudy
6:03 PM78.8 °F73.4 °F83 %29.78 in10.0 miEast (90°)11.5 mphScattered Clouds
6:07 PM78.8 °F73.4 °F83 %29.78 in10.0 miEast (90°)9.2 mphMostly Cloudy
6:09 PM78.8 °F73.4 °F83 %29.78 in10.0 miEast (90°)11.5 mphScattered Clouds
6:18 PM78.8 °F73.4 °F83 %29.78 in10.0 miEast (80°)8.1 mphMostly Cloudy
6:21 PM78.8 °F73.4 °F83 %29.78 in10.0 miEast (90°)10.4 mphScattered Clouds
6:27 PM78.8 °F73.4 °F83 %29.78 in10.0 miEast (80°)8.1 mphMostly Cloudy
6:29 PM78.8 °F73.4 °F83 %29.78 in10.0 miEast (90°)10.4 mphScattered Clouds
6:34 PM78.8 °F73.4 °F83 %29.78 in10.0 miEast (80°)10.4 mphMostly Cloudy
6:36 PM78.8 °F73.4 °F83 %29.78 in10.0 miEast (80°)10.4 mphScattered Clouds
6:55 PM78.4 °F74.1 °F87 %29.79 in10.0 miEast (80°)9.2 mphScattered Clouds
7:41 PM78.8 °F75.2 °F89 %29.79 in10.0 miEast (80°)10.4 mphMostly Cloudy
7:50 PM78.8 °F75.2 °F89 %29.80 in10.0 miEast (80°)10.4 mphScattered Clouds
7:54 PM78.8 °F75.2 °F89 %29.80 in10.0 miEast (80°)11.5 mphMostly Cloudy
7:55 PM78.4 °F74.3 °F87 %29.80 in10.0 miEast (80°)12.7 mphMostly Cloudy
8:01 PM78.8 °F75.2 °F89 %29.80 in10.0 miENE (70°)11.5 mphScattered Clouds
8:02 PM78.8 °F75.2 °F89 %29.80 in10.0 miEast (80°)11.5 mphMostly Cloudy
8:09 PM78.8 °F73.4 °F83 %29.80 in10.0 miEast (80°)10.4 mphScattered Clouds
8:15 PM78.8 °F73.4 °F83 %29.80 in10.0 miEast (80°)9.2 mphMostly Cloudy
8:18 PM78.8 °F75.2 °F89 %29.81 in10.0 miEast (80°)10.4 mphScattered Clouds
8:19 PM78.8 °F73.4 °F83 %29.81 in10.0 miEast (80°)11.5 mphMostly Cloudy
8:23 PM78.8 °F73.4 °F83 %29.81 in10.0 miEast (80°)11.5 mphScattered Clouds
8:38 PM78.8 °F73.4 °F83 %29.81 in10.0 miEast (80°)10.4 mphMostly Cloudy
8:41 PM78.8 °F75.2 °F89 %29.81 in10.0 miEast (80°)10.4 mphMostly Cloudy
8:52 PM78.8 °F73.4 °F83 %29.81 in10.0 miEast (80°)12.7 mphMostly Cloudy
8:55 PM78.4 °F73.8 °F85 %29.81 in10.0 miEast (80°)12.7 mphMostly Cloudy
9:02 PM78.8 °F73.4 °F83 %29.81 in10.0 miEast (80°)13.8 mphMostly Cloudy
9:04 PM78.8 °F73.4 °F83 %29.82 in10.0 miEast (80°)13.8 mphScattered Clouds
9:46 PM78.8 °F73.4 °F83 %29.82 in10.0 miEast (90°)11.5 mphMostly Cloudy
9:47 PM78.8 °F73.4 °F83 %29.82 in10.0 miEast (80°)13.8 mphMostly Cloudy
9:54 PM78.8 °F73.4 °F83 %29.82 in10.0 miEast (80°)11.5 mphMostly Cloudy
9:55 PM78.4 °F73.8 °F85 %29.82 in10.0 miEast (80°)12.7 mphMostly Cloudy
9:57 PM78.8 °F73.4 °F83 %29.82 in10.0 miEast (90°)11.5 mphScattered Clouds
10:03 PM78.8 °F73.4 °F83 %29.82 in10.0 miEast (80°)12.7 mphMostly Cloudy
10:16 PM78.8 °F73.4 °F83 %29.82 in10.0 miEast (80°)13.8 mphScattered Clouds
10:42 PM78.8 °F75.2 °F89 %29.83 in10.0 miEast (90°)12.7 mphMostly Cloudy
10:44 PM78.8 °F75.2 °F89 %29.83 in10.0 miEast (80°)9.2 mphMostly Cloudy
10:55 PM78.4 °F74.7 °F88 %29.82 in10.0 miEast (80°)12.7 mphMostly Cloudy
11:24 PM78.8 °F73.4 °F83 %29.82 in10.0 miEast (90°)11.5 mphScattered Clouds
11:26 PM78.8 °F73.4 °F83 %29.82 in10.0 miEast (90°)12.7 mphMostly Cloudy
11:27 PM78.8 °F73.4 °F83 %29.82 in10.0 miEast (90°)11.5 mphMostly Cloudy
11:38 PM78.8 °F75.2 °F89 %29.82 in10.0 miEast (90°)11.5 mphMostly Cloudy
11:40 PM78.8 °F73.4 °F83 %29.82 in10.0 miEast (80°)12.7 mphScattered Clouds
11:43 PM78.8 °F75.2 °F89 %29.82 in10.0 miEast (80°)11.5 mphMostly Cloudy
11:48 PM78.8 °F75.2 °F89 %29.82 in10.0 miEast (80°)11.5 mphMostly Cloudy
11:55 PM78.3 °F74.3 °F88 %29.82 in10.0 miEast (90°)12.7 mphMostly Cloudy
Hourly data recorded from PGUA, located miles away from Tamuning, Guam







STORIES FROM OUR PARTNERS